• In Hungary
  • List of Countries
  • For 7 days
  • Water Temperature
  • Satellite Maps
  • Weather Map
  • News
  • Weather Widgets
  • user-avatar
    Login

    Hourly Weather Belize

    Today, 20 August, Sunday

    Time Temperature Precipitation Wind Pressure Humidity
    00:00 +26°C° 0 mm 3 mps 759 mmHg 97%
    01:00 +26°C° 1.3 mm 3 mps 759 mmHg 98%
    02:00 +26°C° 1.3 mm 3 mps 758 mmHg 98%
    03:00 +26°C° 1.3 mm 3 mps 758 mmHg 99%
    04:00 +26°C° 1.7 mm 3 mps 758 mmHg 99%
    05:00 +26°C° 1.7 mm 3 mps 758 mmHg 99%
    06:00 +26°C° 0 mm 2 mps 759 mmHg 99%
    07:00 +27°C° 2.4 mm 2 mps 759 mmHg 97%
    08:00 +28°C° 2.4 mm 2 mps 759 mmHg 95%
    09:00 +29°C° 2.4 mm 2 mps 759 mmHg 93%
    10:00 +29°C° 1.5 mm 3 mps 759 mmHg 92%
    11:00 +30°C° 1.5 mm 3 mps 759 mmHg 90%
    12:00 +30°C° 1.5 mm 3 mps 758 mmHg 89%
    13:00 +31°C° 0.9 mm 3 mps 758 mmHg 87%
    14:00 +31°C° 0.9 mm 3 mps 758 mmHg 86%
    15:00 +31°C° 0.9 mm 3 mps 757 mmHg 84%
    16:00 +30°C° 0.6 mm 3 mps 757 mmHg 86%
    17:00 +29°C° 0.6 mm 3 mps 757 mmHg 88%
    18:00 +28°C° 0.6 mm 3 mps 758 mmHg 90%
    19:00 +28°C° 1.1 mm 3 mps 758 mmHg 92%
    20:00 +27°C° 1.1 mm 3 mps 758 mmHg 95%
    21:00 +27°C° 1.1 mm 4 mps 759 mmHg 97%
    22:00 +27°C° 0.6 mm 3 mps 759 mmHg 97%
    23:00 +27°C° 0.6 mm 3 mps 759 mmHg 97%

    Tomorrow, 21 August, Monday

    Time Temperature Precipitation Wind Pressure Humidity
    00:00 +26°C° 0.6 mm 3 mps 759 mmHg 97%
    01:00 +26°C° 0.1 mm 3 mps 758 mmHg 98%
    02:00 +26°C° 0.1 mm 3 mps 758 mmHg 98%
    03:00 +26°C° 0.1 mm 3 mps 758 mmHg 98%
    04:00 +26°C° 0 mm 2 mps 758 mmHg 98%
    05:00 +26°C° 0 mm 2 mps 758 mmHg 98%
    06:00 +26°C° 0 mm 2 mps 759 mmHg 99%
    07:00 +28°C° 0.3 mm 2 mps 759 mmHg 94%
    08:00 +29°C° 0.3 mm 2 mps 759 mmHg 89%
    09:00 +31°C° 0.3 mm 2 mps 760 mmHg 84%
    10:00 +32°C° 0.5 mm 2 mps 759 mmHg 77%
    11:00 +34°C° 0.5 mm 2 mps 759 mmHg 70%
    12:00 +35°C° 0.5 mm 2 mps 759 mmHg 63%
    13:00 +32°C° 1.2 mm 2 mps 759 mmHg 72%
    14:00 +31°C° 1.2 mm 2 mps 758 mmHg 82%
    15:00 +29°C° 1.2 mm 2 mps 758 mmHg 91%
    16:00 +28°C° 0.7 mm 2 mps 758 mmHg 93%
    17:00 +28°C° 0.7 mm 2 mps 758 mmHg 95%
    18:00 +27°C° 0.7 mm 2 mps 758 mmHg 97%
    19:00 +27°C° 0.4 mm 3 mps 758 mmHg 97%
    20:00 +27°C° 0.4 mm 3 mps 759 mmHg 98%
    21:00 +26°C° 0.4 mm 4 mps 759 mmHg 98%
    22:00 +26°C° 2.6 mm 4 mps 759 mmHg 98%
    23:00 +26°C° 2.6 mm 4 mps 759 mmHg 98%

    Day after tomorrow, 22 August, Tuesday

    Time Temperature Precipitation Wind Pressure Humidity
    00:00 +26°C° 2.6 mm 4 mps 758 mmHg 98%
    01:00 +26°C° 3.3 mm 4 mps 758 mmHg 98%
    02:00 +26°C° 3.3 mm 3 mps 758 mmHg 98%
    03:00 +26°C° 3.3 mm 3 mps 757 mmHg 98%
    04:00 +26°C° 1.8 mm 2 mps 757 mmHg 99%
    05:00 +26°C° 1.8 mm 2 mps 757 mmHg 99%
    06:00 +26°C° 1.8 mm 2 mps 758 mmHg 99%
    07:00 +27°C° 0.6 mm 2 mps 758 mmHg 97%
    08:00 +27°C° 0.6 mm 2 mps 758 mmHg 96%
    09:00 +28°C° 0.6 mm 2 mps 759 mmHg 94%
    10:00 +30°C° 0.5 mm 2 mps 759 mmHg 86%
    11:00 +31°C° 0.5 mm 1 mps 758 mmHg 78%
    12:00 +33°C° 0.5 mm 1 mps 758 mmHg 70%
    13:00 +32°C° 0.3 mm 2 mps 758 mmHg 76%
    14:00 +31°C° 0.3 mm 2 mps 757 mmHg 81%
    15:00 +31°C° 0.3 mm 3 mps 756 mmHg 86%
    16:00 +30°C° 0.5 mm 3 mps 756 mmHg 88%
    17:00 +29°C° 0.5 mm 4 mps 757 mmHg 91%
    18:00 +28°C° 0.5 mm 4 mps 757 mmHg 93%
    19:00 +28°C° 0.5 mm 5 mps 757 mmHg 94%
    20:00 +27°C° 0.5 mm 5 mps 758 mmHg 96%
    21:00 +27°C° 0.5 mm 5 mps 758 mmHg 97%
    22:00 +27°C° 1.7 mm 5 mps 758 mmHg 98%
    23:00 +27°C° 1.7 mm 5 mps 758 mmHg 98%

    23 August, Wednesday

    Time Temperature Precipitation Wind Pressure Humidity
    00:00 +27°C° 1.7 mm 5 mps 757 mmHg 98%
    01:00 +27°C° 2.5 mm 5 mps 757 mmHg 98%
    02:00 +27°C° 2.5 mm 5 mps 757 mmHg 98%
    03:00 +27°C° 2.5 mm 5 mps 756 mmHg 98%
    04:00 +27°C° 2.1 mm 4 mps 756 mmHg 98%
    05:00 +27°C° 2.1 mm 4 mps 756 mmHg 98%
    06:00 +27°C° 2.1 mm 3 mps 757 mmHg 98%
    07:00 +27°C° 0.6 mm 3 mps 757 mmHg 98%
    08:00 +28°C° 0.6 mm 3 mps 758 mmHg 97%
    09:00 +28°C° 0.6 mm 3 mps 758 mmHg 97%
    10:00 +29°C° 0.1 mm 3 mps 758 mmHg 92%
    11:00 +30°C° 0.1 mm 3 mps 757 mmHg 88%
    12:00 +31°C° 0.1 mm 2 mps 757 mmHg 83%
    13:00 +32°C° 0 mm 2 mps 756 mmHg 77%
    14:00 +34°C° 0 mm 2 mps 756 mmHg 70%
    15:00 +35°C° 0 mm 2 mps 755 mmHg 63%
    16:00 +33°C° 0 mm 3 mps 755 mmHg 70%
    17:00 +31°C° 0 mm 3 mps 755 mmHg 76%
    18:00 +30°C° 0 mm 3 mps 755 mmHg 83%
    19:00 +29°C° 0.3 mm 4 mps 756 mmHg 88%
    20:00 +28°C° 0.3 mm 4 mps 756 mmHg 92%
    21:00 +27°C° 0.3 mm 4 mps 757 mmHg 97%
    22:00 +27°C° 0.4 mm 4 mps 756 mmHg 97%
    23:00 +27°C° 0.4 mm 4 mps 756 mmHg 97%

    24 August, Thursday

    Time Temperature Precipitation Wind Pressure Humidity
    00:00 +27°C° 0.4 mm 4 mps 756 mmHg 97%
    01:00 +27°C° 0.5 mm 4 mps 756 mmHg 97%
    02:00 +27°C° 0.5 mm 5 mps 755 mmHg 98%
    03:00 +27°C° 0.5 mm 5 mps 755 mmHg 98%
    04:00 +27°C° 0.1 mm 5 mps 755 mmHg 98%
    05:00 +27°C° 0.1 mm 5 mps 755 mmHg 98%
    06:00 +27°C° 0.1 mm 4 mps 756 mmHg 98%
    07:00 +28°C° 0.1 mm 5 mps 756 mmHg 94%
    08:00 +30°C° 0.1 mm 5 mps 756 mmHg 91%
    09:00 +32°C° 0.1 mm 5 mps 756 mmHg 87%
    10:00 +33°C° 0.1 mm 5 mps 756 mmHg 78%
    11:00 +34°C° 0.1 mm 5 mps 756 mmHg 69%
    12:00 +36°C° 0.1 mm 5 mps 755 mmHg 60%
    13:00 +35°C° 0 mm 5 mps 755 mmHg 61%
    14:00 +35°C° 0 mm 6 mps 754 mmHg 61%
    15:00 +35°C° 0 mm 6 mps 754 mmHg 62%
    16:00 +34°C° 0 mm 6 mps 754 mmHg 70%
    17:00 +32°C° 0 mm 6 mps 754 mmHg 78%
    18:00 +30°C° 0 mm 6 mps 755 mmHg 86%
    19:00 +29°C° 1 mm 6 mps 755 mmHg 90%
    20:00 +28°C° 1 mm 6 mps 755 mmHg 93%
    21:00 +28°C° 1 mm 6 mps 756 mmHg 97%
    22:00 +28°C° 1.2 mm 7 mps 756 mmHg 97%
    23:00 +27°C° 1.2 mm 7 mps 756 mmHg 97%

    25 August, Friday

    Time Temperature Precipitation Wind Pressure Humidity
    00:00 +27°C° 1.2 mm 7 mps 755 mmHg 97%
    01:00 +27°C° 0.3 mm 7 mps 755 mmHg 96%
    02:00 +28°C° 0.3 mm 7 mps 755 mmHg 95%
    03:00 +28°C° 0.3 mm 7 mps 755 mmHg 94%
    04:00 +28°C° 0 mm 7 mps 755 mmHg 92%
    05:00 +28°C° 0 mm 7 mps 755 mmHg 90%
    06:00 +28°C° 0 mm 7 mps 756 mmHg 89%
    07:00 +30°C° 0 mm 7 mps 756 mmHg 81%
    08:00 +32°C° 0 mm 7 mps 757 mmHg 74%
    09:00 +34°C° 0 mm 7 mps 757 mmHg 66%
    10:00 +34°C° 0.1 mm 7 mps 757 mmHg 63%
    11:00 +35°C° 0.1 mm 7 mps 757 mmHg 60%
    12:00 +36°C° 0.1 mm 7 mps 757 mmHg 57%
    13:00 +36°C° 0 mm 6 mps 756 mmHg 57%
    14:00 +35°C° 0 mm 6 mps 756 mmHg 57%
    15:00 +35°C° 0 mm 6 mps 756 mmHg 57%
    16:00 +34°C° 0.1 mm 6 mps 756 mmHg 65%
    17:00 +32°C° 0.1 mm 6 mps 757 mmHg 72%
    18:00 +30°C° 0.1 mm 6 mps 757 mmHg 80%
    19:00 +30°C° 0.3 mm 7 mps 757 mmHg 81%
    20:00 +29°C° 0.3 mm 7 mps 758 mmHg 83%
    21:00 +29°C° 0.3 mm 7 mps 758 mmHg 85%
    22:00 +28°C° 1 mm 7 mps 758 mmHg 88%
    23:00 +28°C° 1 mm 7 mps 758 mmHg 92%
    Show more